Погода в Призначном

Россия / Белгородская область     51°02′06″N   36°51′17″E
темп.,
°C
ветер,
м/с
пор.,
м/с
влажн.,
%
обл.,
%
осадки,
мм/ч
давл.,
гПа
погр.,
м
14 апреля, ср
ср1400:00+11юз258327 0.0 1021251
03:00+9ююв239226 0.0 102172
06:00+8юв2292100 0.0 102015
09:00+12вюв127088 0.0 1019381
12:00+14ююв226591 0.1 1018749
15:00+16ююв2453100 0.8 10161092
18:00+13зюз3574100 0.8 1015149
21:00+13зюз2271100 1.2 101628
15 апреля, чт
чт1500:00+10з2284100 0.0 101512
03:00+10ссв228290 0.0 101434
06:00+10в1270100 0.0 101324
09:00+13ю126090 0.0 1013313
12:00+16ю345886 0.7 10131022
15:00+15ююз565367 3.2 10121614
18:00+14ююз366333 0.3 1013525
21:00+11ююв3574100 0.3 1013119
16 апреля, пт
пт1600:00+9юв239176 0.2 101478
03:00+7ю23946 0.2 101462
06:00+7юв35945 0.0 1014103
09:00+10ююв567523 0.0 1015719
12:00+13ююв68535 0.0 10161296
15:00+14ююв684378 0.0 10162252
18:00+12ююз455989 0.1 1017884
21:00+9ююз23705 0.1 101859
17 апреля, сб
сб1700:00+7сз2277100 0.0 101915
03:00+7в2582100 0.2 1020148
06:00+7ю1192100 2.3 102080
09:00+7з3687100 4.0 1020465
12:00+7з5789100 1.2 1020583
15:00+7з5788100 4.0 1020453
18:00+6зсз359196 7.9 1021389
21:00+6з1290100 7.9 102280
18 апреля, вс
вс1800:00+6ссв0194100 1.9 102253
03:00+4в359537 1.9 1023109
06:00+5св3597100 2.3 1023245
09:00+7вюв3583100 3.8 1024590
12:00+10вюв3465100 0.7 10231226
15:00+8вюв3582100 2.6 1024622
18:00+9в358091 0.3 1024559
21:00+6всв369242 1.1 1024205